TimeEDT,TemperatureF,Dew PointF,Humidity,Sea Level PressureIn,VisibilityMPH,Wind Direction,Wind SpeedMPH,Gust SpeedMPH,PrecipitationIn,Events,Conditions,WindDirDegrees,DateUTC
12:58 AM,81.0,75.0,82,30.19,10.0,SW,10.4,-,N/A,,Clear,230,2013-07-17 04:58:00
1:58 AM,81.0,75.9,85,30.18,10.0,WSW,8.1,-,N/A,,Clear,250,2013-07-17 05:58:00
2:58 AM,80.1,73.9,81,30.17,10.0,WNW,8.1,-,N/A,,Partly Cloudy,300,2013-07-17 06:58:00
3:58 AM,78.1,73.9,87,30.17,10.0,NW,9.2,-,N/A,,Scattered Clouds,320,2013-07-17 07:58:00
4:58 AM,77.0,73.9,90,30.15,10.0,West,3.5,-,0.00,,Partly Cloudy,260,2013-07-17 08:58:00
5:58 AM,75.9,73.9,94,30.17,8.0,SE,4.6,-,N/A,,Clear,140,2013-07-17 09:58:00
6:58 AM,77.0,73.9,90,30.19,8.0,WNW,8.1,-,N/A,,Scattered Clouds,290,2013-07-17 10:58:00
7:58 AM,79.0,73.9,84,30.19,9.0,NW,6.9,-,N/A,,Clear,320,2013-07-17 11:58:00
8:58 AM,81.0,73.9,79,30.19,9.0,NNW,8.1,-,N/A,,Partly Cloudy,340,2013-07-17 12:58:00
9:58 AM,82.0,75.0,79,30.20,8.0,North,4.6,-,N/A,,Mostly Cloudy,350,2013-07-17 13:58:00
10:58 AM,86.0,78.1,77,30.20,9.0,Variable,4.6,-,N/A,,Clear,0,2013-07-17 14:58:00
11:58 AM,89.1,75.0,63,30.18,10.0,NE,8.1,-,N/A,,Clear,50,2013-07-17 15:58:00
12:58 PM,89.1,73.0,59,30.18,10.0,NE,8.1,-,N/A,,Scattered Clouds,50,2013-07-17 16:58:00
1:58 PM,91.0,72.0,53,30.17,10.0,NE,8.1,-,N/A,,Clear,50,2013-07-17 17:58:00
2:58 PM,90.0,69.1,50,30.16,10.0,Variable,6.9,-,N/A,,Clear,0,2013-07-17 18:58:00
3:58 PM,90.0,70.0,52,30.14,10.0,ENE,9.2,-,N/A,,Clear,60,2013-07-17 19:58:00
4:58 PM,86.0,73.0,65,30.12,10.0,East,8.1,-,N/A,,Clear,100,2013-07-17 20:58:00
5:58 PM,84.0,72.0,67,30.12,10.0,East,4.6,-,N/A,,Clear,100,2013-07-17 21:58:00
6:58 PM,84.0,73.0,69,30.12,10.0,East,6.9,-,N/A,,Scattered Clouds,100,2013-07-17 22:58:00
7:58 PM,82.0,73.0,74,30.13,10.0,SE,3.5,-,N/A,,Clear,130,2013-07-17 23:58:00
8:58 PM,79.0,72.0,79,30.14,10.0,South,3.5,-,N/A,,Clear,190,2013-07-18 00:58:00
9:58 PM,78.1,73.0,84,30.15,10.0,Calm,Calm,-,N/A,,Clear,0,2013-07-18 01:58:00
10:58 PM,75.9,73.0,91,30.14,8.0,Calm,Calm,-,N/A,,Clear,0,2013-07-18 02:58:00
11:58 PM,75.9,73.9,94,30.14,9.0,Calm,Calm,-,N/A,,Clear,0,2013-07-18 03:58:00